San Jose, Costa Rica

3:23 AM CST on February 18, 2018 (GMT -0600)
Juan Santamaria International

Weather History for MROC - March, 2014

Change the Weather History Date:

Saturday, March 29, 2014

  Actual Average Record
Temperature  
Mean Temperature 76 °F -  
Max Temperature 89 °F 83 °F 92 °F (2017)
Min Temperature 62 °F 65 °F 60 °F (2001)
Cooling Degree Days 10    
Growing Degree Days 26 (Base 50)    
Moisture  
Dew Point 55 °F    
Average Humidity 53    
Maximum Humidity 73    
Minimum Humidity 20    
Precipitation  
Precipitation 0.00 in 0.10 in - ()
Sea Level Pressure  
Sea Level Pressure 29.96 in    
Wind  
Wind Speed 10 mph ()    
Max Wind Speed 15 mph    
Max Gust Speed 26 mph    
Visibility 9.6 miles    
Events      
Averages and records for this station are not official NWS values.
T = Trace of Precipitation, MM = Missing Value Source: Averaged Metar Reports

Daily Weather History Graph

Daily Weather History Graph

Search for Another Location

Airport or City:

Trip Planner

Search our weather history database for the weather conditions in past years. The results will help you decide how hot, cold, wet, or windy it might be!

Date:

Astronomy

Mar. 29, 2014 Rise Set
Actual Time 5:35 AM CST 5:47 PM CST
Civil Twilight 5:14 AM CST 6:08 PM CST
Nautical Twilight 4:50 AM CST 6:32 PM CST
Astronomical Twilight 4:25 AM CST 6:57 PM CST
Moon 4:31 AM CST (3/29) 4:57 PM CST (3/29)
Length of Visible Light 12h 53m
Length of Day
12h 11m
Waning Crescent, 1% of the Moon is Illuminated
Mar 29
Waning Crescent
Mar 30
New
Apr 7
First Quarter
Apr 15
Full
Apr 22
Last Quarter

Hourly Weather History & Observations

Time (CST) Temp. Heat Index Dew Point Humidity Pressure Visibility Wind Dir Wind Speed Gust Speed Precip Events Conditions
12:00 AM 68 °F - 56 °F 58% 29.86 in 12 mi ENE 10.4 mph - -  
12:00 AM 68.0 °F - 57.2 °F 68% 30.01 in - ENE 10.4 mph - N/A   Clear
1:00 AM 68.0 °F - 57.2 °F 68% 30.00 in - East 11.5 mph - N/A   Clear
2:00 AM 68.0 °F - 57.2 °F 68% 29.98 in - East 15.0 mph - N/A   Clear
3:00 AM 63 °F - 53 °F 61% 29.81 in 12 mi NNE 9.2 mph - -  
3:00 AM 62.6 °F - 53.6 °F 72% 29.97 in - NNE 9.2 mph - N/A   Clear
4:00 AM 64.4 °F - 55.4 °F 73% 29.97 in - ENE 13.8 mph - N/A   Clear
5:00 AM 64.4 °F - 55.4 °F 73% 29.98 in - ENE 11.5 mph - N/A   Clear
6:00 AM 64 °F - 53 °F 60% 29.87 in 12 mi ENE 11.5 mph - -  
6:00 AM 64.4 °F - 53.6 °F 68% 30.00 in - ENE 11.5 mph - N/A   Clear
7:00 AM 71.6 °F - 55.4 °F 57% 30.03 in - ENE 6.9 mph - N/A   Clear
8:00 AM 77.0 °F - 55.4 °F 47% 30.04 in - East 10.4 mph - N/A   Clear
9:00 AM 79 °F - 54 °F 31% 29.90 in 12 mi East 11.5 mph - -  
9:00 AM 78.8 °F - 53.6 °F 42% 30.05 in - East 11.5 mph 23.0 mph N/A   Clear
10:00 AM 82.4 °F 81.4 °F 53.6 °F 37% 30.04 in - East 12.7 mph 24.2 mph N/A   Clear
11:00 AM 86.0 °F 84.2 °F 53.6 °F 33% 30.02 in - East 10.4 mph - N/A   Clear
12:00 PM 87 °F - 52 °F 20% 29.83 in 12 mi East 10.4 mph - -   Scattered Clouds
12:00 PM 86.0 °F - 51.8 °F 31% 30.00 in - East 10.4 mph - N/A   Clear
1:00 PM 87.8 °F - 51.8 °F 29% 29.96 in 6.2 mi ESE 11.5 mph 23.0 mph N/A   Partly Cloudy
2:00 PM 87.8 °F 85.7 °F 53.6 °F 31% 29.94 in - ESE 12.7 mph - N/A   Partly Cloudy
3:00 PM 86.0 °F 84.2 °F 53.6 °F 33% 29.92 in 6.2 mi East 10.4 mph - N/A   Partly Cloudy
4:00 PM 82.4 °F 82.5 °F 59.0 °F 45% 29.91 in 6.2 mi ESE 13.8 mph 25.3 mph N/A   Partly Cloudy
5:00 PM 78.8 °F - 57.2 °F 47% 29.94 in 6.2 mi East 10.4 mph - N/A   Partly Cloudy
6:00 PM 71 °F - - %  in 12 mi East 10.4 mph - -  
6:00 PM 71.6 °F - 57.2 °F 60% 29.96 in 6.2 mi East 10.4 mph - N/A   Partly Cloudy
7:00 PM 69.8 °F - 55.4 °F 60% 29.99 in - East 15.0 mph 26.5 mph N/A   Clear
8:00 PM 68.0 °F - 57.2 °F 68% 30.00 in - ESE 15.0 mph 26.5 mph N/A   Clear
9:00 PM 69 °F - 58 °F 59% 29.87 in 12 mi East 11.5 mph - -  
9:00 PM 69.8 °F - 57.2 °F 64% 30.02 in - East 11.5 mph 23.0 mph N/A   Clear
10:00 PM 69.8 °F - 59.0 °F 68% 30.02 in - East 13.8 mph - N/A   Clear
11:00 PM 69.8 °F - 57.2 °F 64% 30.03 in - East 10.4 mph 21.9 mph N/A   Clear